Погода в Ташкенте

Погода в Ташкенте : погода сейчас, прогноз погоды и архив. Всё, что Вы хотите узнать о погоде в Ташкенте!

Хотите узнать прогноз погоды в Ташкенте? Тогда Вам сюда: Погода в Ташкенте

Поиск расширенной информации на нашем сайте:

Другие новости

Новости СМИ2

Главная страница сайта

Новости сайта

03.07.2017

Напоминаем, что на нашем специализированном сайте Метеоцентр.Азия вы можете получить высокодетализированные автоматические прогнозы погоды по пунктам России, СНГ и мира в авиационном формате (включающие направление и скорость ветра, видимость, явления погоды, количество и форму облачности, нижнюю и верхнюю границу облачности).

Рекомендуем: Трансфер в израиле israel4u.ru.

Погода в Ташкенте - сегодня

Время (UTC), дата Ветер
(°,м/с) 
Видим.   Явления Облачность Т
(°С)
Тd
(°С)
f(%) Тe
(°С)
Pmin
(гПа)
dP
(гПа)
Po
(мм)
O2
(г/м3)
Тmin Tmax R s Состояние
почвы
09 15.06.18 150 (ЮВ) 20000 м    8/8 1000 м кучево-дожд., верхняя 
[Cb cap|Ci fib]
+27.9 +10.9 35 +31  1007.6  715  260           
12 15.06.18 360 (С) 2000 м  сильн. гроза, ливневой дождь  10/10 600 м кучево-дожд. 
[Cb cap]
+19.3 +15.1 77 +30  1012.4  718  267           
15 15.06.18 350 (С) 20000 м  {гроза, ливн. осадки}  6/3 1000 м средняя, верхняя 
[Sc|Ac cast|Cs]
+19.7 +12.8 64 +27  1010.8  -1.4  717  267    +29.2       
18 15.06.18 090 (В) 10 км  зарница{гроза, ливн. осадки}  4/0 средняя, верхняя 
[Ac cast|Ci fib]
+17.6 +12.9 74 +25  1012.5  1.2  717  269    +29.2     
21 15.06.18 030 (СВ) 10 км    ясно 
+16.2 +13.1 82 +25  1012  -0.7  717  270           
00 16.06.18 020 (С) 20000 м    ясно 
+16.3 +11.1 71 +21  1011.3  -0.7  716  270           
06 16.06.18 230 (ЮЗ) 20000 м    ясно 
+26.6 +10.4 36 +29  1008.5  0.2  716  261  +15.4         
09 16.06.18 070 (В) 10 км    ясно 
+28.2 +9.3 31 +29  1008.1  -0.1  716  260           
12 16.06.18 210 (ЮЗ) 10 км    ясно 
+30.2 +10.5 30 +33  1005.5  -2.1  714  257           
15 16.06.18 160 (Ю) 20000 м    ясно 
+27 +11 37 +31  1005  -1  713  260    +30.6       
18 16.06.18 030 (СВ) 10 км    ясно 
+21.8 +14.5 63 +31  1005.2  -0.7  713  263    +30.6       
21 16.06.18 280 (З) 10 км    ясно 
+19.3 +12.5 65 +27  1004.5  -1.1  712  265           
00 17.06.18 020 (С) 20000 м    ясно 
+19.1 +12.9 67 +28  1003.8  -0.7  712  265           
03 17.06.18 060 (СВ) 20000 м    ясно 
+25.4 +13 46 +32  1002.7  712  260           
06 17.06.18 230 (ЮЗ) 20000 м    1/1 1000 м 
[Cu hum]
+30.4 +11 30 +34  1001.6  -0.2  711  256  +18         
09 17.06.18 220 (ЮЗ) 20000 м    3/3 1000 м 
[Cu hum]
+31.5 +8.9 25 +32  1000.5  -0.8  711  255           
12 17.06.18 тихо ()   20000 м    3/1 1000 м верхняя 
[Cu hum|Ci fib]
+32.1 +8 22 +32  999.9  -0.5  710  255           
15 17.06.18 080 (В) 20000 м    ясно 
+28.4 +10.6 33 +31  1000.3  -0.2  710  257    +33.4       
18 17.06.18 050 (СВ) 10 км    ясно 
+24.2 +10.3 41 +27  1001.7  0.5  711  261    +33.4       
21 17.06.18 020 (С) 10 км    ясно 
+20.6 +10.7 53 +24  1002.2  -0.1  711  264           
00 18.06.18 030 (СВ) 20000 м    ясно 
+19.6 +10.4 55 +24  1002.3  -0.1  710  265           
03 18.06.18 090 (В) 20000 м    ясно 
+26.8 +7.6 30 +27  1001.7  0.7  711  260  +18.8        сухая 
06 18.06.18 090 (В) 20000 м    3/0 верхняя 
[Ci fib]
+33 +5.3 18 +33  1000.7  711  255  +18.8         
09 18.06.18 230 (ЮЗ) 20000 м    3/0 верхняя 
[Ci fib]
+35 +3.2 14 +35  999.3  -1  710  253           
12 18.06.18 040 (СВ) 20000 м    3/0 верхняя 
[Ci fib]
+34.8 -0.7 10 +35  998.9  -0.4  710  254           
Время (UTC), дата Ветер
(°,м/с) 
Видим.   Явления Облачность Т
(°С)
Тd
(°С)
f(%) Тe
(°С)
Pmin
(гПа)
dP
(гПа)
Po
(мм)
O2
(г/м3)
Тmin Tmax R s Состояние
почвы

Для получения пояснительной информации подведите курсор к названию столбца.

ПОГОДА в Ташкенте - архив

Всё, что Вы хотите узнать о погоде в Ташкенте - удобно и подробно!

Выберите нужную дату (начиная с 1 января 2015* года) и нажмите кнопку "Найти".
Будут отображены архивные сводки погоды по пункту Ташкент, начиная с указанной даты.


Отображать данные в формате CSV (для использования в таблицах Excel)


Внимание! Наш архив погоды предназначен исключительно для личного некоммерческого использования в познавательных целях. Если Вам необходимы официальные справки о состоянии погоды (для производственных, юридических, коммерческих и т.п. целей), обращайтесь в органы Росгидромета.

*Примечание: данная дата относится к архиву по метеостанциям СССР (Россия, СНГ, Балтия).
Архив по метеостанциям Зарубежной Европы и Азии (кроме Китая) хранится 10 дней, по другим регионам земного шара (Китай, Африка, Америка, Австралия, Океания) - 1 день.

Ташкент - район местоположения метеостанции


Название, широта, долгота, высота метеостанции:
Ташкент (город) 41.3°ш. 69.3°д. 488 м над ур. моря [Узбекистан]

Дополнительная информация

В oтличие oт бoльшинства пoгoдных сайтoв мы публикуем пoдрoбную метеoинфoрмацию в детальнoм прoфессиoнальнoм фoрмате.

Характеристики температуры и влажнoсти вoздуха измеряются на высoте 2 м в тени вдали oт зданий и деревьев.
Скoрoсть ветра измеряется на высoте 10 м (на урoвне рoста челoвека скoрoсть ветра ниже в 1.5-2 раза). Если метеoстанция нахoдится в гoрoде или в лесу, тo скoрoсть ветра занижена на 2-4 м/с пo сравнению с oткрытым местoм. Скoрoсть ветра над акватoриями крупных рек и oзёр, а также на вершинах хoлмoв на 2-5 м/с выше, чем в oбычных услoвиях.
Атмoсфернoе давление в разных тoчках местнoсти мoжет значительнo oтличаться oт давления на метеoстанции, в зависимoсти oт услoвий рельефа (при пoдъёме на 10 м давление пoнижается примернo на 1 мм рт.ст.).